Location: Argonnex
(45.9500°N, 6.1333°E)
Time: 10:31:57
(UTC+00:00)

Cosmos 2266 Rocket - Pass Details

Date: 05 October 2023
Orbit: 933 x 1008 km, 82.9° (Epoch: 10 December)

Event Time Altitude Azimuth Distance (km) Brightness Sun altitude
Exits shadow 00:49:08 19° 59° (ENE) 2,184 6.2 -44.7°
Drops below altitude 10° 00:52:00 10° 34° (NE) 2,792 7.0 -44.4°
Sets 00:55:08 0° 20° (NNE) 3,750 7.8 -44.1°
